Home   Weather   Wiesbaden   Past weeks

Flag for Germany Past Weather in Wiesbaden, Hesse, Germany — Yesterday and Last 2 Weeks

Now
42 °F

Clear.


Feels Like: 37 °F
Forecast: 37 / 57 °F
Wind: 8 mph from North

Location: Wiesbaden Airport

Current Time: Apr 28, 2017 at 2:57:37 am

Latest Report: Apr 28, 2017 at 1:58 am


Visibility: N/A

Pressure: 29.96 "Hg

Humidity: 56%

Dew Point: 27 °F

Location of WiesbadenLocation

Past Weather in Wiesbaden — Graph

°F

Wiesbaden Temperature Yesterday

Maximum temperature yesterday: 55 °F (at 4:58 pm)
Minimum temperature yesterday: 37 °F (at 6:58 am)
Average temperature yesterday: 47 °F

High & Low Weather Summary for the Past Weeks

 TemperatureHumidityPressure
High61 °F (Apr 24, 4:58 pm)96% (Apr 17, 8:58 am)30.63 "Hg (Apr 17, 8:58 am)
Low31 °F (Apr 24, 6:58 am)26% (Apr 20, 5:58 pm)29.71 "Hg (Apr 25, 4:58 am)
Average46 °F62%30.13 "Hg
* Reported Apr 13 1:58 am — Apr 28 1:58 am, Wiesbaden, Weather by CustomWeather, © 2017

Note: Actual official high and low records may vary slightly from our data, if they occured in-between our weather recording intervals... More about our weather records

Advertising

Wiesbaden Weather History for the Previous 24 Hours

Scroll right to see more
 ConditionsComfort  
Time TempWeatherWind HumidityBarometerVisibility
1:58 am
Fri, Apr 28
42 °FClear.8 mph56%29.96 "HgN/A
12:58 am43 °FClear.9 mph49%29.96 "HgN/A
11:58 pm
Thu, Apr 27
41 °FOvercast.6 mph57%29.98 "HgN/A
10:58 pm43 °FOvercast.5 mph57%29.98 "HgN/A
9:58 pm45 °FClear.No wind51%29.98 "HgN/A
8:58 pm47 °FMostly cloudy.3 mph52%29.96 "HgN/A
7:58 pm51 °FPartly sunny.3 mph36%29.96 "HgN/A
7:25 pm50 °FScattered clouds.7 mph40%29.95 "HgN/A
7:03 pm50 °FLight rain. Overcast.8 mph43%29.95 "HgN/A
6:58 pm50 °FOvercast.6 mph47%29.97 "HgN/A
6:25 pm50 °FOvercast.13 mph43%29.95 "HgN/A
6:08 pm52 °FLight rain. Cloudy.7 mph38%29.94 "HgN/A
5:58 pm53 °FBroken clouds.6 mph33%29.96 "HgN/A
4:58 pm55 °FOvercast.No wind33%29.96 "HgN/A
3:58 pm54 °FPartly sunny.7 mph33%29.96 "HgN/A
2:58 pm54 °FScattered clouds.No wind35%29.97 "HgN/A
1:58 pm52 °FPassing clouds.5 mph34%29.97 "HgN/A
11:58 am50 °FPartly sunny.6 mph40%30.00 "HgN/A
10:58 am50 °FSunny.5 mph45%30.00 "HgN/A
9:58 am47 °FSunny.5 mph55%29.99 "HgN/A
8:58 am45 °FScattered clouds.7 mph61%29.99 "HgN/A
7:58 am40 °FPartly sunny.No wind70%29.98 "HgN/A
6:58 am37 °FScattered clouds.6 mph75%29.98 "HgN/A
5:58 am38 °FOvercast.6 mph72%29.97 "HgN/A
4:58 am39 °FPassing clouds.7 mph70%29.94 "HgN/A
2:58 am43 °FPassing clouds.7 mph61%29.93 "HgN/A
Weather by CustomWeather, © 2017

See weather overviewHow to use our weather pages